Location: Boiro
(42.6475°N, 8.8834°W)
Time: 03:12:24
(UTC+01:00)

X-37B - Pass Details

Date: 25 October 2021
Orbit: 330 x 341 km, 45.0° (Epoch: 20 November)

Event Time Altitude Azimuth Distance (km) Brightness Sun altitude
Rises 19:56:29 0° 286° (WNW) 2,126 5.6 -4.2°
Reaches altitude 10° 19:58:30 10° 288° (WNW) 1,286 4.3 -4.5°
Maximum altitude 20:01:23 73° 13° (NNE) 359 0.3 -5.1°
Drops below altitude 10° 20:04:15 10° 100° (E) 1,282 2.6 -5.6°
Enters shadow 20:04:59 - 101° (E) 1,586 3.1 -5.7°
